Location: downtown San Diego
(32.7310°N, 117.1990°W)
Time: 21:52:25
(UTC-07:00)

H-2A R/B - Pass Details

Date: 12 July 2018
Orbit: 734 x 837 km, 98.3° (Epoch: 17 July)

Event Time Altitude Azimuth Distance (km) Brightness Sun altitude
Exits shadow 22:50:47 19° 234° (SW) 1,904 4.0 -28.0°
Maximum altitude 22:52:49 23° 265° (W) 1,709 4.0 -28.2°
Drops below altitude 10° 22:57:04 10° 316° (NW) 2,450 5.5 -28.7°
Sets 22:59:56 0° 331° (NNW) 3,382 6.6 -29.0°
